Regional Weather Roundup
Issued by NWS

Home | Current Version | Previous Version | Text Only | Print | Product List | Glossary Off
Versions: 1 2 3 4 5 6 7 8 9 10 11 12 13 14 15 16 17 18 19 20 21 22 23 24 25 26 27 28 29 30 31 32 33 34 35 36 37 38 39 40 41 42 43 44 45 46 47 48 49 50

000
ASUS43 KFSD 221210
RWRSD

WEATHER ROUNDUP FOR SOUTH DAKOTA
NATIONAL WEATHER SERVICE SIOUX FALLS SD
700 AM CDT TUE JUL 22 2014

NOTE: "FAIR" INDICATES FEW OR NO CLOUDS BELOW 12,000 FEET WITH NO
SIGNIFICANT WEATHER AND/OR OBSTRUCTIONS TO VISIBILITY.


SDZ001>005-009-010-012>017-221300-
NORTHWEST AND NORTH CENTRAL SOUTH DAKOTA

CITY           SKY/WX    TMP DP  RH WIND       PRES   REMARKS
BUFFALO          N/A     58  57  97 W3        30.13R
FAITH            N/A     59  58  96 N5        30.16R
MOBRIDGE       MOCLDY    64  62  93 N5        30.11R
$$

SDZ012>016-024>037-041>051-057-063-072>074-221300-
SOUTHWEST AND SOUTH CENTRAL SOUTH DAKOTA

CITY           SKY/WX    TMP DP  RH WIND       PRES   REMARKS
RAPID CTY ARPT MOCLDY    65  62  90 S7        30.19R
PIERRE         CLOUDY    65  64  97 NW5       30.11R
CUSTER         PTCLDY    58  50  75 N6        30.29R
ELLSWORTH AFB  MOCLDY    67  63  87 N6        30.18R
PHILIP         MOCLDY    66  63  90 E7        30.14S
PINE RIDGE     PTCLDY    61  59  93 CALM      30.18R
WINNER         FAIR      65  63  93 NW8       30.12R
$$

SDZ004>011-016>023-039-040-221300-
NORTHEAST SOUTH DAKOTA

CITY           SKY/WX    TMP DP  RH WIND       PRES   REMARKS
ABERDEEN       PTCLDY    63  62  97 N9        30.06R
WATERTOWN      CLOUDY    66  63  90 NW7       30.06R
SISSETON         N/A     66  65  96 N9        30.02R
$$

SDZ017-020-022-023-036>040-048>070-221300-
SOUTHEAST SOUTH DAKOTA

CITY           SKY/WX    TMP DP  RH WIND       PRES   REMARKS
SIOUX FALLS    CLOUDY    70  63  78 NE12      29.99F THUNDER
HURON          MOCLDY    65  63  93 N10       30.04R
CHAMBERLAIN    MOCLDY    65  64  95 W6        30.10R
MITCHELL       MOCLDY    68  64  87 NW15      30.01R
YANKTON        PTCLDY    70  63  78 E8        29.95F
$$

ABBREVIATIONS USED IN REMARKS
   TC - TEMPERATURE IN CELSIUS
  WCI - WIND CHILL INDEX
   HX - HEAT INDEX
  VSB - VISIBILITY



USA.gov is the U.S. government's official web portal to all federal, state and local government web resources and services.